Skip Page Navigation
NASA JPL Caltech
NASA Logo - Jet Propulsion Laboratory + View the NASA Portal
+ Center for Near-Earth Object Studies
JPL Home Earth Solar System Stars & Galaxies Technology
JPL Solar System Dynamics
BODIES ORBITS EPHEMERIDES TOOLS PHYSICAL DATA DISCOVERY FAQ SITE MAP
JPL Small-Body Database Browser
Search: [ help ]  
79087 Scheidt (1977 UM2)
Classification: Main-belt Asteroid          SPK-ID: 2079087
Ephemeris | Orbit Diagram | Orbital Elements | Mission Design | Physical Parameters | Discovery Circumstances ]

[ hide orbit diagram ]

For accurate long-term ephemerides, please instead use our Horizons system.This orbit viewer was implemented using two-body methods, and hence should not be used for determining accurate long-term trajectories (over several years or decades) or planetary encounter circumstances.


Orbital Elements at Epoch 2459200.5 (2020-Dec-17.0) TDB
Reference: JPL 33 (heliocentric ecliptic J2000)
 Element Value Uncertainty (1-sigma)   Units 
e .1973755192505634 3.5594e-08  
a 2.580316239811829 1.1036e-08 au
q 2.071024982148308 9.5144e-08 au
i 12.76925075223678 4.7601e-06 deg
node 271.1599355900385 1.8852e-05 deg
peri 101.675136653172 2.4867e-05 deg
M 156.5191950457791 1.6524e-05 deg
tp 2458542.277179100381
(2019-Feb-27.77717910)
6.7107e-05 TDB
period 1513.937095412203
4.14
9.7124e-06
2.659e-08
d
yr
n .2377905932095429 1.5255e-09 deg/d
Q 3.08960749747535 1.3214e-08 au
  Orbit Determination Parameters
   # obs. used (total)      1400  
   data-arc span      15853 days (43.40 yr)  
   first obs. used      1977-10-15  
   last obs. used      2021-03-11  
   planetary ephem.      DE441  
   SB-pert. ephem.      SB441-N16  
   condition code      0  
   norm. resid. RMS      .49102  
   source      ORB  
   producer      Otto Matic  
   solution date      2021-Apr-13 13:40:06  

Additional Information
 Earth MOID = 1.11547 au 
 Jupiter MOID = 2.54313 au 
 T_jup = 3.363 
[ show covariance matrix ]

Ephemeris | Orbit Diagram | Orbital Elements | Mission Design | Physical Parameters | Discovery Circumstances ]

Physical Parameter Table
Parameter Symbol Value Units Sigma Reference Notes
absolute magnitude H 14.3   n/a MPO453213  
diameter diameter 3.410 km 0.132 urn:nasa:pds:neowise_diameters_albedos::2.0[mainbelt] (http://adsabs.harvard.edu/abs/2011ApJ...741...68M)  
rotation period rot_per 6.638 h n/a LCDB (Rev. 2020-October); Warner et al., 2009 Result based on less than full coverage, so that the period may be wrong by 30 percent or so.
Published Reference List:
[Waszczak, A.; Chang, C.-K.; Ofeck, E.O.; Laher, F.; et al. (2015) Astron. J. 150, A75.]
geometric albedo albedo 0.381   0.059 urn:nasa:pds:neowise_diameters_albedos::2.0[mainbelt] (http://adsabs.harvard.edu/abs/2011ApJ...741...68M)  

79087 Scheidt           Discovered 1977 Oct. 17 by F. Börngen at Tautenburg.
Samuel Scheidt (1587-1654), whose birth and death occurred in Halle, which is also the native town of the discoverer, was a famous organist and composer. He greatly influenced sacred vocal music and the Baroque organ style, with his first publication in Germany of his organ works in the modern five-line stave notation.
NOTE: some special characters may not display properly (any characters within {} are an attempt to place the proper accent above a character)
Reference: 20050125/MPCPages.arcLast Updated: 2005-06-01

Alternate Designations
 1977 UM2 = 1998 XQ33 = 2002 OQ24 
Ephemeris | Orbit Diagram | Orbital Elements | Mission Design | Physical Parameters | Discovery Circumstances ]
ABOUT SSD CREDITS/AWARDS PRIVACY/COPYRIGHT GLOSSARY LINKS
FirstGov 2021-Apr-18 14:10 UT
(server date/time)  
NASA Home Page
Site Manager:   Ryan S. Park
Webmaster  Alan B. Chamberlin